TimeEDT,TemperatureF,Dew PointF,Humidity,Sea Level PressureIn,VisibilityMPH,Wind Direction,Wind SpeedMPH,Gust SpeedMPH,PrecipitationIn,Events,Conditions,WindDirDegrees,DateUTC
12:05 AM,46.4,44.6,93,29.75,2.5,East,20.7,26.5,N/A,,Overcast,80,2013-05-21 04:05:00
12:21 AM,46.4,44.6,93,29.76,1.5,East,19.6,29.9,N/A,,Overcast,80,2013-05-21 04:21:00
12:46 AM,46.4,44.6,93,29.75,0.5,East,17.3,26.5,N/A,Fog,Fog,80,2013-05-21 04:46:00
12:53 AM,46.0,45.0,96,29.77,0.5,East,12.7,26.5,N/A,Fog,Fog,80,2013-05-21 04:53:00
1:05 AM,46.4,44.6,93,29.76,0.2,East,16.1,24.2,N/A,Fog,Fog,90,2013-05-21 05:05:00
1:34 AM,44.6,44.6,100,29.75,0.2,East,13.8,24.2,N/A,Fog,Fog,80,2013-05-21 05:34:00
1:53 AM,45.0,44.1,97,29.77,0.2,East,15.0,24.2,N/A,Fog,Fog,90,2013-05-21 05:53:00
2:44 AM,44.6,44.6,100,29.73,0.2,East,15.0,23.0,N/A,Fog,Fog,90,2013-05-21 06:44:00
2:53 AM,44.1,44.1,100,29.74,0.2,East,13.8,23.0,N/A,Fog,Fog,80,2013-05-21 06:53:00
3:53 AM,44.1,43.0,96,29.73,0.2,East,18.4,24.2,N/A,Fog,Fog,80,2013-05-21 07:53:00
4:03 AM,42.8,42.8,100,29.71,0.2,East,17.3,24.2,N/A,Fog,Fog,90,2013-05-21 08:03:00
4:53 AM,43.0,43.0,100,29.71,0.2,East,15.0,-,N/A,Fog,Fog,90,2013-05-21 08:53:00
5:53 AM,44.1,43.0,96,29.72,0.2,East,17.3,24.2,0.01,Fog,Fog,90,2013-05-21 09:53:00
6:02 AM,44.6,42.8,93,29.70,0.2,East,13.8,21.9,N/A,Fog,Fog,80,2013-05-21 10:02:00
6:14 AM,44.6,44.6,100,29.70,0.5,East,15.0,-,N/A,Fog,Fog,90,2013-05-21 10:14:00
6:31 AM,44.6,42.8,93,29.73,0.2,East,15.0,23.0,N/A,Fog-Thunderstorm,Fog,100,2013-05-21 10:31:00
6:44 AM,42.8,42.8,100,29.72,0.8,East,16.1,23.0,0.02,Rain-Thunderstorm,Light Rain,80,2013-05-21 10:44:00
6:51 AM,42.8,42.8,100,29.72,2.0,East,16.1,24.2,0.05,Rain-Thunderstorm,Rain,80,2013-05-21 10:51:00
6:53 AM,43.0,43.0,100,29.74,2.0,East,15.0,24.2,0.07,Rain-Thunderstorm,Thunderstorms and Rain,90,2013-05-21 10:53:00
7:10 AM,44.6,44.6,100,29.71,5.0,East,12.7,-,0.04,Rain-Thunderstorm,Light Rain,80,2013-05-21 11:10:00
7:19 AM,44.6,44.6,100,29.71,6.0,ENE,16.1,-,0.05,Rain,Light Rain,70,2013-05-21 11:19:00
7:36 AM,44.6,42.8,93,29.69,2.5,ENE,17.3,21.9,0.12,Rain,Rain,70,2013-05-21 11:36:00
7:53 AM,44.1,43.0,96,29.70,2.5,ENE,16.1,-,0.17,Rain,Light Rain,70,2013-05-21 11:53:00
8:10 AM,44.6,42.8,93,29.68,0.8,East,17.3,26.5,0.02,Rain,Light Rain,80,2013-05-21 12:10:00
8:22 AM,44.6,44.6,100,29.68,0.2,East,17.3,25.3,0.02,Fog-Rain,Light Rain,80,2013-05-21 12:22:00
8:37 AM,44.6,44.6,100,29.67,0.2,ENE,15.0,-,0.03,Fog-Rain,Light Rain,70,2013-05-21 12:37:00
8:53 AM,45.0,45.0,100,29.70,0.2,East,12.7,20.7,0.04,Fog-Rain,Light Rain,80,2013-05-21 12:53:00
9:04 AM,44.6,44.6,100,29.67,0.2,East,18.4,28.8,0.01,Fog-Rain,Light Rain,80,2013-05-21 13:04:00
9:30 AM,46.4,44.6,93,29.68,0.8,East,15.0,24.2,0.04,Rain,Rain,80,2013-05-21 13:30:00
9:53 AM,46.0,45.0,96,29.70,0.5,East,15.0,23.0,0.07,Fog-Rain,Light Rain,80,2013-05-21 13:53:00
10:11 AM,46.4,44.6,93,29.68,0.2,ENE,17.3,24.2,0.01,Fog-Rain,Light Rain,70,2013-05-21 14:11:00
10:41 AM,46.4,46.4,100,29.68,1.0,East,18.4,28.8,0.20,Rain,Heavy Rain,80,2013-05-21 14:41:00
10:51 AM,46.4,46.4,100,29.68,3.0,East,15.0,23.0,0.22,Rain,Light Rain,80,2013-05-21 14:51:00
10:53 AM,46.9,46.0,97,29.70,4.0,East,12.7,23.0,0.22,Rain,Light Rain,90,2013-05-21 14:53:00
10:59 AM,46.4,46.4,100,29.69,1.5,East,13.8,21.9,0.09,Rain,Heavy Rain,90,2013-05-21 14:59:00
11:20 AM,46.4,44.6,93,29.69,3.0,East,15.0,23.0,0.19,Rain,Light Rain,80,2013-05-21 15:20:00
11:29 AM,46.4,44.6,93,29.68,4.0,ENE,13.8,24.2,0.20,Rain,Light Rain,70,2013-05-21 15:29:00
11:53 AM,45.0,45.0,100,29.70,4.0,East,15.0,26.5,0.20,,Overcast,90,2013-05-21 15:53:00
11:56 AM,44.6,44.6,100,29.68,1.8,East,12.7,26.5,N/A,,Overcast,80,2013-05-21 15:56:00
12:05 PM,44.6,44.6,100,29.69,0.2,ENE,16.1,21.9,N/A,Fog,Fog,70,2013-05-21 16:05:00
12:36 PM,44.6,44.6,100,29.68,0.2,East,16.1,23.0,N/A,Fog,Fog,80,2013-05-21 16:36:00
12:53 PM,45.0,45.0,100,29.70,0.2,ENE,15.0,25.3,N/A,Fog,Fog,70,2013-05-21 16:53:00
1:53 PM,46.0,46.0,100,29.70,0.2,East,17.3,23.0,0.01,Fog,Fog,90,2013-05-21 17:53:00
2:14 PM,46.4,46.4,100,29.68,0.2,East,15.0,-,N/A,Fog,Fog,90,2013-05-21 18:14:00
2:53 PM,46.9,46.9,100,29.70,0.2,ENE,17.3,26.5,N/A,Fog,Fog,70,2013-05-21 18:53:00
3:53 PM,46.9,46.9,100,29.71,0.2,East,19.6,25.3,N/A,Fog,Fog,90,2013-05-21 19:53:00
4:53 PM,46.9,46.9,100,29.72,0.2,East,17.3,26.5,N/A,Fog,Fog,80,2013-05-21 20:53:00
5:45 PM,46.4,46.4,100,29.71,0.5,East,11.5,27.6,N/A,Fog,Fog,90,2013-05-21 21:45:00
5:53 PM,46.9,46.9,100,29.73,0.5,East,13.8,21.9,N/A,Fog,Fog,80,2013-05-21 21:53:00
6:53 PM,46.9,46.0,97,29.74,0.5,East,16.1,23.0,0.00,Fog-Rain,Light Rain,80,2013-05-21 22:53:00
7:24 PM,46.4,46.4,100,29.72,1.0,East,16.1,23.0,0.01,,Overcast,80,2013-05-21 23:24:00
7:53 PM,46.9,46.9,100,29.75,1.0,East,10.4,19.6,0.01,Rain,Light Rain,80,2013-05-21 23:53:00
8:38 PM,46.4,46.4,100,29.74,0.8,ENE,11.5,-,0.01,,Overcast,70,2013-05-22 00:38:00
8:53 PM,46.9,46.9,100,29.76,0.8,ENE,12.7,-,0.01,Rain,Light Rain,70,2013-05-22 00:53:00
9:04 PM,46.4,46.4,100,29.74,1.0,ENE,11.5,-,0.01,Rain,Light Rain,60,2013-05-22 01:04:00
9:40 PM,46.4,46.4,100,29.74,2.5,ENE,12.7,20.7,0.01,,Overcast,60,2013-05-22 01:40:00
9:53 PM,46.0,45.0,96,29.77,2.0,ENE,12.7,-,0.02,,Overcast,60,2013-05-22 01:53:00
10:53 PM,46.0,45.0,96,29.78,3.0,ENE,12.7,20.7,N/A,,Overcast,70,2013-05-22 02:53:00
11:10 PM,46.4,44.6,93,29.77,2.5,ENE,11.5,23.0,N/A,,Overcast,70,2013-05-22 03:10:00
11:25 PM,46.4,44.6,93,29.76,1.8,ENE,15.0,19.6,N/A,,Overcast,60,2013-05-22 03:25:00
11:51 PM,46.4,44.6,93,29.77,2.0,ENE,11.5,20.7,N/A,,Overcast,70,2013-05-22 03:51:00